Regional Weather Roundup
Issued by NWS

Home | Current Version | Previous Version | Text Only | Print | Product List | Glossary On
Versions: 1 2 3 4 5 6 7 8 9 10 11 12 13 14 15 16 17 18 19 20 21 22 23 24 25 26 27 28 29 30 31 32 33 34 35 36 37 38 39 40 41 42 43 44 45 46 47 48 49 50
000
ASUS45 KCYS 230510
RWRWY

WYOMING REGIONAL WEATHER ROUNDUP
NATIONAL WEATHER SERVICE CHEYENNE WY
1100 PM MDT FRI MAY 22 2015

NOTE:  "FAIR" INDICATES FEW OR NO CLOUDS BELOW 12,000 FEET
WITH NO SIGNIFICANT WEATHER AND/OR OBSTRUCTIONS TO VISIBILITY.

WYZ001-230600-
YELLOWSTONE NATIONAL PARK

CITY           SKY/WX    TMP DP  RH WIND       PRES   REMARKS
LK YELLOWSTONE   N/A     41  39  93 CALM      30.03S
W YELLOWSTONE  NOT AVBL

$$
WYZ002>013-054>058-071-098>099-230600-
NORTHERN WYOMING

CITY           SKY/WX    TMP DP  RH WIND       PRES   REMARKS
JACKSON        CLOUDY    45  43  93 S3        29.98S
CODY           CLOUDY    48  46  93 CALM      29.96F
GREYBULL       LGT RAIN  56  51  84 NW8       29.93R
WORLAND        CLOUDY    54  50  86 CALM      29.93R
SHERIDAN       FAIR      50  45  83 SE18G33   29.95R
BUFFALO        CLOUDY    47  45  93 SE14      30.02R
GILLETTE       MOCLDY    46  41  82 SE14      30.02F
HULETT         FAIR      46  41  81 S7        30.05S
NEWCASTLE      CLOUDY    45  41  87 SE8       30.07F

$$
WYZ014>020-022>026-101>103-230600-
CENTRAL WYOMING

CITY           SKY/WX    TMP DP  RH WIND       PRES   REMARKS
BIG PINEY      LGT RAIN  43  40  89 S7        30.00S
PINEDALE       LGT RAIN  41  41 100 E3        30.01S
DUBOIS         CLOUDY    41  37  87 SE7       29.99S
LANDER         CLOUDY    47  44  90 W6        29.94S
RIVERTON       CLOUDY    49  46  90 NE10      29.95S
CASPER         LGT RAIN  45  43  93 E13       29.97F
DOUGLAS        CLOUDY    46  44  93 SE15      30.01F

$$
WYZ021-027>030-104>119-230600-
SOUTHERN WYOMING

CITY           SKY/WX    TMP DP  RH WIND       PRES   REMARKS
EVANSTON       MOCLDY    39  38  96 CALM      29.99F
KEMMERER       CLOUDY    41  37  87 W3        30.01S
FORT BRIDGER   PTCLDY    41  41 100 W6        30.01F
ROCK SPRINGS   FAIR      41  40  96 S12       29.99R
DIXON          FAIR      43  38  84 CALM      30.04R
RAWLINS        FAIR      41  37  86 S3        30.01R
SARATOGA       FAIR      39  37  93 MISG      30.02S
LARAMIE        FAIR      38  37  97 SE17      30.03R WCI  28
CHEYENNE       FOG       44  43  96 SE12      30.05S VSB 1
TORRINGTON     CLOUDY    45  44  97 E15       30.03F
PINE BLUFFS    CLOUDY    43  43 100 SE9G18    30.05S

$$


USA.gov is the U.S. government's official web portal to all federal, state and local government web resources and services.